1509138000.58,25497,10.44,72928.5,-6.13,-6.89,-6.81,0,*51
1509138001.84,25498,10.44,72930.8,-6.13,-6.93,-6.93,0,*56
1509138003.09,25499,10.5,72932.0,-6.13,-6.97,-6.93,0,*53
1509138004.29,25500,10.5,72936.3,-6.13,-6.89,-6.89,0,*56
1509138005.52,25501,10.5,72932.3,-6.13,-6.97,-7.11,0,*58
1509138006.73,25502,10.44,72930.3,-6.13,-7.11,-7.11,0,*54
1509138007.98,25503,10.5,72928.5,-6.13,-6.97,-6.97,0,*55
1509138009.23,25504,10.44,72928.5,-6.13,-6.97,-6.97,0,*52
1509138010.49,25505,10.44,72926.5,-6.13,-6.93,-6.93,0,*53
1509138011.73,25506,10.5,72930.0,-6.13,-7.05,-7.05,0,*50
1509138012.98,25507,10.5,72926.3,-6.13,-6.97,-6.97,0,*51
1509138014.18,25508,10.44,72924.8,-6.13,-6.77,-6.77,0,*5E
1509138015.38,25509,10.5,72926.0,-6.13,-6.77,-6.69,0,*50
1509138016.59,25510,10.5,72924.5,-6.13,-6.63,-6.69,0,*5D
1509138017.78,25511,10.44,72920.0,-6.13,-6.69,-6.69,0,*56
1509138018.98,25512,10.5,72926.3,-6.13,-6.69,-6.69,0,*55
1509138020.22,25513,10.44,72924.0,-6.13,-6.63,-6.63,0,*54
1509138021.44,25514,10.44,72928.8,-6.13,-6.69,-6.63,0,*59
1509138022.63,25515,10.5,72932.8,-6.13,-6.69,-6.69,0,*52
1509138023.83,25516,10.44,72932.0,-6.13,-6.69,-6.69,0,*51
1509138025.02,25517,10.5,72934.5,-6.13,-6.69,-6.69,0,*50
1509138026.23,25518,10.44,72934.0,-6.13,-6.63,-6.69,0,*55
1509138027.43,25519,10.44,72932.3,-6.13,-6.77,-6.69,0,*51
1509138028.63,25520,10.44,72936.3,-6.13,-6.77,-6.69,0,*5B
1509138029.85,25521,10.5,72936.8,-6.13,-6.69,-6.63,0,*5F
1509138031.07,25522,10.44,72928.5,-6.13,-6.69,-6.63,0,*5C
1509138032.29,25523,10.5,72932.8,-6.13,-6.69,-6.63,0,*5D
1509138033.56,25524,10.44,72928.0,-6.11,-6.63,-6.63,0,*52
1509138034.81,25525,10.44,72928.8,-6.11,-6.69,-6.63,0,*59
1509138036.02,25526,10.44,72930.3,-6.13,-6.63,-6.69,0,*58
1509138037.21,25527,10.5,72926.0,-6.13,-6.69,-6.69,0,*53
1509138038.43,25528,10.44,72926.3,-6.11,-6.69,-6.69,0,*5E
1509138039.67,25529,10.44,72924.5,-6.11,-6.69,-6.63,0,*55
1509138040.89,25530,10.44,72924.3,-6.09,-6.69,-6.63,0,*54
1509138042.11,25531,10.44,72926.3,-6.11,-6.69,-6.69,0,*56
1509138043.35,25532,10.44,72924.8,-6.09,-6.63,-6.63,0,*5C
1509138044.57,25533,10.5,72926.8,-6.09,-6.73,-6.63,0,*5C
1509138045.82,25534,10.44,72924.8,-6.09,-6.63,-6.63,0,*5A
1509138047.03,25535,10.5,72926.5,-6.09,-6.63,-6.59,0,*52
1509138048.3,25536,10.44,72924.8,-6.11,-6.63,-6.63,0,*51
1509138049.53,25537,10.44,72924.3,-6.09,-6.59,-6.63,0,*50
1509138050.75,25538,10.5,72924.5,-6.09,-6.69,-6.63,0,*5C
1509138052.02,25539,10.5,72924.3,-6.11,-6.63,-6.63,0,*5E
1509138053.26,25540,10.44,72918.5,-6.09,-6.63,-6.63,0,*59
1509138054.5,25541,10.5,72922.5,-6.09,-6.63,-6.63,0,*58
1509138055.75,25542,10.44,72916.5,-6.11,-6.77,-6.63,0,*57
1509138056.98,25543,10.44,72926.5,-6.09,-6.73,-6.63,0,*5B
1509138058.22,25544,10.44,72918.3,-6.09,-6.63,-6.63,0,*5D
1509138059.43,25545,10.44,72926.5,-6.09,-6.63,-6.73,0,*5D
1509138060.63,25546,10.5,72924.8,-6.09,-6.85,-6.85,0,*5F
1509138061.83,25547,10.5,72928.5,-6.09,-6.85,-6.85,0,*5E
1509138063.05,25548,10.5,72928.0,-6.11,-6.77,-6.69,0,*57
1509138064.25,25549,10.5,72928.8,-6.09,-6.77,-6.73,0,*54
1509138065.47,25550,10.5,72930.3,-6.11,-6.77,-6.77,0,*51
1509138066.72,25551,10.44,72928.0,-6.09,-6.63,-6.63,0,*59
1509138067.92,25552,10.44,72922.5,-6.09,-6.77,-6.77,0,*5A
1509138069.15,25553,10.44,72920.3,-6.11,-6.81,-6.81,0,*52
1509138070.35,25554,10.5,72928.5,-6.09,-6.77,-6.85,0,*51
1509138071.54,25555,10.5,72920.8,-6.09,-6.85,-6.85,0,*5D
1509138072.77,25556,10.44,72904.3,-6.11,-6.89,-6.89,0,*57
1509138073.96,25557,10.5,72912.5,-6.09,-6.73,-6.73,0,*5F
1509138075.16,25558,10.44,72904.0,-6.09,-6.81,-6.89,0,*58
1509138076.36,25559,10.44,72900.0,-6.09,-6.77,-6.77,0,*51
1509138077.56,25560,10.5,72898.8,-6.09,-6.73,-6.77,0,*5F
1509138078.76,25561,10.5,72908.8,-6.09,-6.85,-6.85,0,*5A
1509138079.98,25562,10.5,72910.8,-6.09,-6.93,-6.85,0,*5E
1509138081.18,25563,10.44,72904.3,-6.09,-6.89,-6.85,0,*54
1509138082.42,25564,10.5,72904.5,-6.11,-6.89,-6.93,0,*5D
1509138083.62,25565,10.5,72910.8,-6.09,-6.77,-6.77,0,*5E
1509138084.85,25566,10.5,72918.0,-6.11,-6.89,-6.77,0,*55
1509138086.07,25567,10.5,72912.5,-6.09,-6.73,-6.63,0,*5D
1509138087.29,25568,10.44,72908.5,-6.09,-6.73,-6.63,0,*52
1509138088.49,25569,10.5,72912.0,-6.09,-6.73,-6.73,0,*52
1509138089.71,25570,10.5,72912.8,-6.09,-6.63,-6.59,0,*53
1509138090.91,25571,10.44,72914.8,-6.09,-6.77,-6.77,0,*5B
1509138092.13,25572,10.44,72912.3,-6.07,-6.85,-6.89,0,*5A
1509138093.32,25573,10.5,72918.8,-6.09,-6.73,-6.73,0,*59
1509138094.55,25574,10.44,72922.3,-6.09,-6.73,-6.63,0,*5F
1509138095.77,25575,10.5,72920.3,-6.09,-6.77,-6.63,0,*5A
1509138097.01,25576,10.44,72910.8,-6.09,-6.63,-6.63,0,*5C
1509138098.24,25577,10.5,72904.3,-6.07,-6.73,-6.73,0,*53
1509138099.46,25578,10.5,72908.5,-6.07,-6.73,-6.77,0,*58
1509138100.68,25579,10.5,72910.3,-6.07,-6.77,-6.77,0,*5D
1509138101.91,25580,10.44,72914.3,-6.07,-6.73,-6.77,0,*5F
1509138103.13,25581,10.5,72916.3,-6.07,-6.73,-6.77,0,*5E
1509138104.4,25582,10.44,72914.8,-6.07,-6.63,-6.63,0,*59
1509138105.62,25583,10.44,72914.8,-6.09,-6.63,-6.59,0,*5F
1509138106.84,25584,10.44,72912.0,-6.09,-6.73,-6.63,0,*50
1509138108.07,25585,10.44,72914.0,-6.07,-6.77,-6.77,0,*5E
1509138109.29,25586,10.44,72912.0,-6.07,-6.85,-6.73,0,*54
1509138110.51,25587,10.5,72912.8,-6.07,-6.89,-6.89,0,*5C
1509138111.73,25588,10.5,72906.8,-6.07,-6.85,-6.85,0,*53
1509138112.96,25589,10.5,72904.3,-6.07,-6.89,-6.89,0,*52
1509138114.18,25590,10.5,72906.3,-6.07,-6.85,-6.85,0,*5A
1509138115.37,25591,10.5,72896.0,-6.09,-6.85,-6.77,0,*58
1509138116.57,25592,10.5,72910.5,-6.09,-6.77,-6.77,0,*56
1509138117.77,25593,10.5,72918.5,-6.09,-6.73,-6.77,0,*53
1509138118.97,25594,10.44,72928.3,-6.09,-6.73,-6.59,0,*58
1509138120.19,25595,10.44,72928.5,-6.09,-6.77,-6.63,0,*54
1509138121.44,25596,10.5,72930.8,-6.09,-6.63,-6.63,0,*52
1509138122.66,25597,10.5,72938.8,-6.09,-6.77,-6.63,0,*56
1509138123.88,25598,10.44,72940.8,-6.09,-6.73,-6.63,0,*5D
1509138125.1,25599,10.5,72948.5,-6.09,-6.63,-6.59,0,*54
1509138126.37,25600,10.5,72950.3,-6.07,-6.63,-6.63,0,*50
1509138127.6,25601,10.44,72946.5,-6.07,-6.77,-6.73,0,*55
1509138128.82,25602,10.44,72962.5,-6.07,-6.77,-6.73,0,*56
1509138130.04,25603,10.5,72960.5,-6.07,-6.73,-6.77,0,*57
1509138131.29,25604,10.5,72960.3,-6.07,-6.63,-6.73,0,*55
1509138132.55,25605,10.44,72960.0,-6.07,-7.05,-7.05,0,*55
1509138133.8,25606,10.44,72958.5,-6.07,-6.93,-6.89,0,*5D
1509138135.03,25607,10.44,72952.5,-6.07,-6.85,-6.85,0,*57
1509138136.28,25608,10.5,72954.0,-6.07,-6.93,-6.89,0,*53
1509138137.47,25609,10.5,72954.0,-6.09,-6.89,-6.89,0,*57
1509138138.7,25610,10.5,72954.0,-6.07,-6.85,-6.85,0,*51
1509138139.94,25611,10.44,72950.0,-6.07,-6.63,-6.73,0,*51
1509138141.13,25612,10.5,72954.8,-6.05,-6.73,-6.69,0,*5A
1509138142.36,25613,10.5,72952.0,-6.07,-6.73,-6.59,0,*5A
1509138143.6,25614,10.44,72950.5,-6.07,-6.63,-6.59,0,*5C
1509138144.87,25615,10.44,72948.3,-6.07,-6.63,-6.63,0,*54
1509138146.06,25616,10.5,72950.5,-6.09,-6.73,-6.77,0,*5D
1509138147.33,25617,10.5,72952.0,-6.07,-6.63,-6.63,0,*56
1509138148.56,25618,10.5,72950.0,-6.07,-6.77,-6.77,0,*59
1509138149.79,25619,10.44,72948.5,-6.07,-6.77,-6.77,0,*58
1509138151.01,25620,10.44,72950.8,-6.07,-6.59,-6.73,0,*5A
1509138152.24,25621,10.44,72950.8,-6.07,-6.59,-6.59,0,*53
1509138153.46,25622,10.44,72948.5,-6.07,-6.59,-6.59,0,*50
1509138154.66,25623,10.5,72948.5,-6.05,-6.59,-6.47,0,*5C
1509138155.86,25624,10.44,72948.0,-6.05,-6.55,-6.51,0,*50
1509138157.09,25625,10.5,72948.0,-6.07,-6.77,-6.85,0,*5A
1509138158.31,25626,10.5,72948.0,-6.07,-6.85,-6.85,0,*54
1509138159.53,25627,10.44,72944.0,-6.07,-6.73,-6.73,0,*55
1509138160.76,25628,10.44,72946.5,-6.07,-6.77,-6.77,0,*5A
1509138161.96,25629,10.44,72944.0,-6.05,-6.73,-6.77,0,*5D
1509138163.15,25630,10.5,72950.3,-6.05,-6.77,-6.77,0,*51
1509138164.38,25631,10.5,72944.8,-6.07,-6.73,-6.73,0,*52
1509138165.57,25632,10.5,72944.0,-6.05,-6.85,-6.85,0,*53
1509138166.77,25633,10.5,72936.5,-6.05,-6.85,-6.85,0,*52
1509138167.99,25634,10.5,72932.0,-6.07,-6.89,-6.89,0,*57
1509138169.21,25635,10.5,72928.5,-6.07,-6.89,-6.89,0,*56
1509138170.41,25636,10.5,72924.0,-6.09,-6.85,-6.85,0,*5B
1509138171.61,25637,10.5,72914.3,-6.09,-6.77,-6.77,0,*5A
1509138172.8,25638,10.44,72906.8,-6.09,-6.85,-6.77,0,*58
1509138174.03,25639,10.5,72904.3,-6.07,-6.77,-6.77,0,*5A
1509138175.25,25640,10.5,72902.8,-6.07,-6.89,-6.89,0,*54
1509138176.53,25641,10.5,72910.3,-6.07,-6.93,-7.01,0,*5F
1509138177.78,25642,10.5,72910.8,-6.07,-6.89,-6.93,0,*5D
1509138179.03,25643,10.44,72912.3,-6.09,-6.93,-6.93,0,*59
1509138180.28,25644,10.5,72926.8,-6.09,-6.93,-6.93,0,*5E
1509138181.47,25645,10.5,72928.5,-6.09,-6.89,-6.89,0,*5F
1509138182.67,25646,10.44,72930.0,-6.09,-6.85,-6.73,0,*55
1509138183.86,25647,10.5,72930.5,-6.09,-6.85,-6.85,0,*5D
1509138185.06,25648,10.44,72926.0,-6.09,-6.85,-6.85,0,*52
1509138186.26,25649,10.44,72924.8,-6.09,-6.89,-6.89,0,*53
1509138187.51,25650,10.5,72926.0,-6.09,-6.93,-6.93,0,*5B
1509138188.75,25651,10.44,72924.8,-6.09,-7.01,-6.93,0,*50
1509138190.0,25652,10.5,72922.3,-6.09,-6.93,-6.93,0,*59
1509138191.25,25653,10.44,72918.8,-6.11,-6.97,-6.89,0,*5E
1509138192.45,25654,10.44,72918.0,-6.09,-6.77,-6.77,0,*5F
1509138193.65,25655,10.44,72918.3,-6.09,-6.77,-6.77,0,*5E
1509138194.85,25656,10.44,72916.3,-6.09,-6.77,-6.77,0,*5D
1509138196.05,25657,10.5,72916.3,-6.09,-6.59,-6.73,0,*54
1509138197.25,25658,10.44,72912.5,-6.09,-6.73,-6.73,0,*53
1509138198.44,25659,10.44,72912.5,-6.09,-6.77,-6.85,0,*5F
1509138199.64,25660,10.5,72914.0,-6.09,-6.89,-6.89,0,*58
1509138200.84,25661,10.5,72912.3,-6.09,-6.89,-6.89,0,*59
1509138202.03,25662,10.5,72912.5,-6.09,-6.85,-6.85,0,*5A
1509138203.26,25663,10.44,72912.0,-6.07,-6.77,-6.77,0,*55
1509138204.48,25664,10.44,72910.3,-6.07,-6.77,-6.73,0,*56
1509138205.71,25665,10.5,72914.5,-6.07,-6.89,-6.89,0,*53
1509138206.93,25666,10.44,72910.8,-6.07,-6.85,-6.85,0,*50
1509138208.16,25667,10.44,72914.8,-6.07,-6.77,-6.73,0,*55
1509138209.35,25668,10.44,72912.8,-6.09,-6.73,-6.73,0,*50
1509138210.55,25669,10.5,72916.0,-6.09,-6.85,-6.77,0,*5C
1509138211.75,25670,10.5,72918.0,-6.09,-6.77,-6.77,0,*59
1509138212.95,25671,10.5,72924.0,-6.09,-6.77,-6.73,0,*5C
1509138214.14,25672,10.44,72922.0,-6.09,-6.77,-6.77,0,*5B
1509138215.34,25673,10.44,72922.8,-6.09,-6.85,-6.77,0,*57
1509138216.54,25674,10.44,72920.0,-6.09,-6.77,-6.85,0,*50
1509138217.76,25675,10.5,72922.3,-6.07,-6.85,-6.89,0,*5E
1509138218.96,25676,10.5,72920.0,-6.09,-6.85,-6.77,0,*52
1509138220.16,25677,10.5,72922.5,-6.09,-6.77,-6.77,0,*5E
1509138221.38,25678,10.5,72938.8,-6.07,-6.73,-6.73,0,*5F
1509138222.6,25679,10.44,72934.5,-6.07,-6.73,-6.59,0,*56
1509138223.85,25680,10.5,72934.5,-6.07,-6.73,-6.63,0,*59
1509138225.08,25681,10.44,72932.5,-6.07,-6.77,-6.73,0,*5D
1509138226.3,25682,10.44,72930.0,-6.07,-6.73,-6.73,0,*5A
1509138227.53,25683,10.5,72932.0,-6.07,-6.77,-6.77,0,*5B
1509138228.75,25684,10.5,72936.8,-6.07,-6.73,-6.73,0,*5C
1509138229.97,25685,10.5,72938.0,-6.07,-6.77,-6.73,0,*59
1509138231.2,25686,10.44,72932.8,-6.07,-6.73,-6.73,0,*5E
1509138232.39,25687,10.44,72938.3,-6.05,-6.73,-6.69,0,*56
1509138233.61,25688,10.44,72932.5,-6.07,-6.77,-6.77,0,*50
1509138234.84,25689,10.44,72934.0,-6.07,-6.73,-6.73,0,*51
1509138236.06,25690,10.44,72928.8,-6.07,-6.73,-6.73,0,*59
1509138237.3,25691,10.5,72934.8,-6.07,-6.63,-6.59,0,*51
1509138238.55,25692,10.5,72932.0,-6.07,-6.73,-6.63,0,*5A
1509138239.77,25693,10.5,72930.3,-6.07,-6.89,-6.85,0,*56
1509138241.02,25694,10.5,72934.0,-6.07,-6.93,-6.89,0,*56
1509138242.25,25695,10.5,72934.3,-6.07,-6.89,-6.85,0,*50
1509138243.47,25696,10.44,72930.3,-6.07,-6.89,-6.85,0,*53
1509138244.66,25697,10.5,72934.0,-6.05,-6.69,-6.59,0,*5F
1509138245.89,25698,10.5,72938.0,-6.07,-6.89,-6.89,0,*51
1509138247.11,25699,10.5,72938.8,-6.07,-6.77,-6.73,0,*54
1509138248.33,25700,10.44,72938.0,-6.07,-6.73,-6.73,0,*51
1509138249.56,25701,10.5,72934.5,-6.07,-6.77,-6.73,0,*54
1509138250.81,25702,10.44,72938.3,-6.07,-6.73,-6.63,0,*52
1509138252.06,25703,10.44,72936.0,-6.07,-6.73,-6.63,0,*53
1509138253.28,25704,10.5,72940.5,-6.07,-6.73,-6.59,0,*5D
1509138254.48,25705,10.44,72942.0,-6.05,-6.69,-6.59,0,*55
1509138255.73,25706,10.5,72946.3,-6.07,-6.73,-6.63,0,*56
1509138256.97,25707,10.44,72940.5,-6.07,-6.73,-6.63,0,*57
1509138258.24,25708,10.5,72946.3,-6.07,-6.63,-6.63,0,*59
1509138259.44,25709,10.5,72944.3,-6.05,-6.59,-6.69,0,*59
1509138260.66,25710,10.5,72936.5,-6.07,-6.73,-6.73,0,*50
1509138261.9,25711,10.5,72936.3,-6.07,-6.63,-6.59,0,*58
1509138263.1,25712,10.5,72938.5,-6.05,-6.59,-6.55,0,*5C
1509138264.32,25713,10.5,72932.0,-6.07,-6.73,-6.73,0,*53
1509138265.52,25714,10.5,72930.0,-6.05,-6.69,-6.59,0,*55
1509138266.71,25715,10.5,72936.5,-6.05,-6.69,-6.59,0,*54
1509138267.91,25716,10.5,72926.5,-6.05,-6.69,-6.59,0,*57
1509138269.11,25717,10.5,72922.8,-6.05,-6.55,-6.55,0,*55
1509138270.35,25718,10.5,72934.5,-6.07,-6.63,-6.59,0,*51
1509138271.55,25719,10.44,72934.8,-6.05,-6.59,-6.55,0,*57
1509138272.75,25720,10.44,72934.3,-6.05,-6.55,-6.55,0,*51
1509138274.02,25721,10.5,72928.8,-6.07,-6.63,-6.63,0,*52
1509138275.22,25722,10.44,72922.8,-6.05,-6.59,-6.59,0,*53
1509138276.42,25723,10.5,72932.3,-6.05,-6.55,-6.55,0,*52
1509138277.62,25724,10.5,72946.0,-6.05,-6.59,-6.55,0,*59
1509138278.81,25725,10.5,72938.0,-6.05,-6.73,-6.69,0,*5F
1509138280.01,25726,10.5,72936.3,-6.05,-6.59,-6.59,0,*57
1509138281.28,25727,10.44,72940.0,-6.07,-6.63,-6.63,0,*54
1509138282.48,25728,10.44,72942.3,-6.05,-6.55,-6.59,0,*55
1509138283.68,25729,10.44,72942.3,-6.05,-6.55,-6.59,0,*54
1509138284.95,25730,10.44,72942.5,-6.07,-6.63,-6.63,0,*52
1509138286.15,25731,10.5,72944.5,-6.05,-6.55,-6.59,0,*5D
1509138287.35,25732,10.5,72952.5,-6.05,-6.55,-6.59,0,*5E
1509138288.55,25733,10.44,72950.5,-6.05,-6.55,-6.55,0,*53
1509138289.75,25734,10.5,72950.5,-6.01,-6.51,-6.51,0,*50
1509138290.95,25735,10.5,72940.8,-6.05,-6.55,-6.59,0,*59
1509138292.15,25736,10.5,72936.5,-6.05,-6.55,-6.55,0,*56
1509138293.34,25737,10.5,72936.3,-6.05,-6.69,-6.59,0,*54
1509138294.54,25738,10.5,72932.3,-6.01,-6.59,-6.55,0,*50
1509138295.74,25739,10.44,72928.3,-6.05,-6.59,-6.59,0,*59
1509138296.96,25740,10.5,72934.8,-6.05,-6.63,-6.59,0,*5E
1509138298.16,25741,10.5,72938.3,-6.05,-6.59,-6.59,0,*56
1509138299.35,25742,10.5,72940.3,-6.05,-6.69,-6.59,0,*56
1509138300.55,25743,10.44,72936.5,-6.05,-6.59,-6.55,0,*58
1509138301.75,25744,10.44,72930.8,-6.05,-6.59,-6.59,0,*53
1509138302.95,25745,10.5,72932.0,-6.01,-6.55,-6.55,0,*56
1509138304.14,25746,10.5,72930.3,-6.01,-6.55,-6.55,0,*55
1509138305.38,25747,10.5,72926.0,-5.99,-6.63,-6.51,0,*57
1509138306.62,25748,10.44,72922.8,-6.01,-6.63,-6.63,0,*5B
1509138307.86,25749,10.5,72928.0,-6.01,-6.63,-6.63,0,*5A
1509138309.07,25750,10.5,72924.0,-6.01,-6.63,-6.55,0,*57
1509138310.29,25751,10.5,72924.8,-6.01,-6.69,-6.63,0,*59
1509138311.51,25752,10.5,72926.3,-6.07,-6.73,-6.73,0,*56
1509138312.71,25753,10.44,72920.3,-6.05,-6.59,-6.59,0,*55
1509138313.91,25754,10.5,72926.5,-6.05,-6.55,-6.55,0,*52
1509138315.11,25755,10.44,72920.5,-6.01,-6.55,-6.51,0,*53
1509138316.31,25756,10.5,72924.8,-6.01,-6.51,-6.51,0,*54
1509138317.51,25757,10.44,72924.3,-6.01,-6.43,-6.51,0,*56
1509138318.75,25758,10.5,72926.5,-6.01,-6.63,-6.63,0,*5A
1509138319.99,25759,10.5,72924.8,-6.01,-6.63,-6.63,0,*5B
1509138321.17,25760,10.44,72926.3,-6.01,-6.69,-6.69,0,*51
1509138322.36,25761,10.44,72920.5,-6.05,-6.69,-6.69,0,*54
1509138323.56,25762,10.5,72922.5,-6.01,-6.51,-6.51,0,*53
1509138324.76,25763,10.44,72916.3,-6.01,-6.51,-6.55,0,*56
1509138325.96,25764,10.5,72918.5,-6.01,-6.51,-6.51,0,*55
1509138327.16,25765,10.5,72918.0,-6.01,-6.55,-6.55,0,*54
1509138328.36,25766,10.5,72912.5,-6.01,-6.55,-6.51,0,*53
1509138329.55,25767,10.5,72914.8,-6.01,-6.55,-6.51,0,*52
1509138330.75,25768,10.5,72916.5,-6.01,-6.55,-6.51,0,*5D
1509138331.95,25769,10.44,72918.5,-6.01,-6.51,-6.51,0,*58
1509138333.17,25770,10.5,72922.8,-5.99,-6.51,-6.55,0,*56
1509138334.37,25771,10.5,72922.5,-6.01,-6.55,-6.55,0,*51
1509138335.57,25772,10.5,72924.3,-6.01,-6.55,-6.51,0,*56
1509138336.79,25773,10.5,72926.5,-5.99,-6.51,-6.51,0,*51
1509138337.99,25774,10.5,72916.3,-6.01,-6.51,-6.51,0,*54
1509138339.19,25775,10.5,72926.0,-6.01,-6.43,-6.51,0,*56
1509138340.39,25776,10.5,72930.5,-6.01,-6.55,-6.55,0,*56
1509138341.58,25777,10.44,72926.5,-6.01,-6.55,-6.55,0,*57
1509138342.8,25778,10.5,72926.5,-5.99,-6.55,-6.55,0,*5A
1509138344.02,25779,10.5,72926.3,-5.99,-6.55,-6.55,0,*5B
1509138345.24,25780,10.5,72924.5,-6.01,-6.55,-6.63,0,*5A
1509138346.48,25781,10.5,72928.5,-6.01,-6.63,-6.63,0,*5E
1509138347.7,25782,10.44,72924.0,-6.01,-6.63,-6.51,0,*5C
1509138348.89,25783,10.5,72928.3,-6.01,-6.55,-6.55,0,*5C
1509138350.11,25784,10.5,72930.8,-5.99,-6.55,-6.55,0,*59
1509138351.35,25785,10.5,72928.8,-6.01,-6.63,-6.63,0,*5A
1509138352.57,25786,10.5,72930.3,-6.01,-6.63,-6.55,0,*5C
1509138353.77,25787,10.5,72924.8,-6.01,-6.51,-6.51,0,*58
1509138354.98,25788,10.5,72922.0,-6.01,-6.63,-6.55,0,*52
1509138356.18,25789,10.5,72920.5,-6.01,-6.55,-6.55,0,*56
1509138357.38,25790,10.5,72922.5,-6.01,-6.55,-6.51,0,*5A
1509138358.6,25791,10.5,72928.8,-5.99,-6.55,-6.55,0,*5D
1509138359.8,25792,10.5,72928.5,-6.01,-6.55,-6.51,0,*58
1509138361.02,25793,10.44,72922.5,-5.99,-6.55,-6.55,0,*5F
1509138362.22,25794,10.5,72926.3,-6.01,-6.51,-6.51,0,*5A
1509138363.41,25795,10.5,72928.8,-6.01,-6.55,-6.43,0,*5C
1509138364.61,25796,10.5,72928.5,-6.01,-6.51,-6.51,0,*58
1509138365.81,25797,10.44,72930.8,-6.01,-6.55,-6.51,0,*5D
1509138367.01,25798,10.44,72934.3,-6.01,-6.55,-6.55,0,*56
1509138368.23,25799,10.5,72940.8,-5.99,-6.55,-6.55,0,*55
1509138369.42,25800,10.5,72940.5,-6.01,-6.55,-6.55,0,*58
1509138370.69,25801,10.5,72940.8,-5.99,-6.63,-6.63,0,*5B
1509138371.91,25802,10.5,72934.5,-5.99,-6.51,-6.55,0,*5C
1509138373.13,25803,10.44,72934.8,-5.99,-6.55,-6.55,0,*59
1509138374.33,25804,10.5,72940.3,-6.01,-6.55,-6.55,0,*5C
1509138375.52,25805,10.44,72942.0,-6.01,-6.55,-6.51,0,*59
1509138376.73,25806,10.5,72942.3,-6.01,-6.51,-6.51,0,*5E
1509138377.92,25807,10.5,72936.3,-6.01,-6.55,-6.51,0,*5B
1509138379.14,25808,10.5,72936.5,-5.99,-6.55,-6.55,0,*52
1509138380.34,25809,10.5,72934.8,-6.01,-6.55,-6.55,0,*51
1509138381.54,25810,10.5,72930.8,-6.01,-6.51,-6.55,0,*5D
1509138382.76,25811,10.5,72930.3,-5.99,-6.55,-6.51,0,*5E
1509138383.98,25812,10.5,72936.0,-5.99,-6.51,-6.51,0,*59
1509138385.18,25813,10.5,72932.8,-6.01,-6.55,-6.51,0,*5E
1509138386.4,25814,10.44,72928.5,-5.99,-6.55,-6.51,0,*5B
1509138387.63,25815,10.5,72934.0,-5.99,-6.51,-6.55,0,*5A
1509138388.82,25816,10.5,72932.5,-6.01,-6.55,-6.55,0,*5F
1509138390.02,25817,10.44,72926.5,-6.01,-6.55,-6.55,0,*5E
1509138391.26,25818,10.44,72934.8,-5.99,-6.55,-6.63,0,*56
1509138392.48,25819,10.5,72946.0,-5.99,-6.55,-6.51,0,*56
1509138393.68,25820,10.44,72946.3,-6.01,-6.55,-6.55,0,*5A
1509138394.9,25821,10.44,72944.8,-5.99,-6.55,-6.55,0,*59
1509138396.11,25822,10.5,72944.5,-5.99,-6.69,-6.69,0,*5A
1509138397.33,25823,10.5,72944.8,-5.99,-6.81,-6.77,0,*52
1509138398.52,25824,10.5,72940.5,-6.01,-6.69,-6.77,0,*51
1509138399.72,25825,10.5,72938.3,-6.01,-6.55,-6.51,0,*5B
1509138400.96,25826,10.44,72944.5,-6.01,-6.63,-6.63,0,*5C
1509138402.22,25827,10.5,72944.3,-5.99,-6.63,-6.63,0,*5F
1509138403.43,25828,10.5,72938.5,-6.01,-6.69,-6.63,0,*58
1509138404.67,25829,10.5,72932.0,-6.01,-6.63,-6.63,0,*53
1509138405.88,25830,10.5,72930.8,-6.01,-6.63,-6.69,0,*51
1509138407.1,25831,10.44,72936.0,-6.01,-6.93,-6.85,0,*5D
1509138408.31,25832,10.5,72948.0,-6.01,-6.81,-6.81,0,*59
1509138409.51,25833,10.5,72940.0,-6.01,-6.81,-6.81,0,*58
1509138410.74,25834,10.5,72954.3,-5.99,-6.77,-6.81,0,*54
1509138411.93,25835,10.5,72948.0,-6.01,-6.85,-6.81,0,*5A
1509138413.13,25836,10.5,72944.8,-6.01,-6.85,-6.85,0,*5D
1509138414.35,25837,10.44,72938.0,-5.99,-7.19,-7.11,0,*56
1509138415.57,25838,10.44,72928.3,-6.01,-7.31,-7.19,0,*59
1509138416.77,25839,10.44,72924.5,-6.01,-7.23,-7.19,0,*5B
1509138418.01,25840,10.5,72916.0,-6.05,-7.27,-7.35,0,*5B
1509138419.25,25841,10.5,72916.5,-6.05,-7.39,-7.35,0,*55
1509138420.53,25842,10.5,72912.8,-6.07,-7.39,-7.43,0,*55
1509138421.76,25843,10.44,72918.3,-6.07,-7.19,-7.19,0,*59
1509138423.03,25844,10.5,72908.3,-6.07,-7.31,-7.31,0,*5E
1509138424.3,25845,10.44,72910.5,-6.07,-7.31,-7.31,0,*5F
1509138425.52,25846,10.44,72908.8,-6.07,-7.15,-7.15,0,*5C
1509138426.73,25847,10.44,72898.8,-6.09,-7.19,-7.19,0,*53
1509138427.97,25848,10.5,72880.5,-6.09,-7.31,-7.31,0,*5C
1509138429.24,25849,10.5,72860.0,-6.11,-7.05,-7.05,0,*54
1509138430.46,25850,10.5,72870.0,-6.09,-7.01,-7.15,0,*50
1509138431.71,25851,10.44,72876.5,-6.09,-6.93,-6.93,0,*54
1509138432.93,25852,10.44,72878.0,-6.09,-6.89,-6.93,0,*5C
1509138434.18,25853,10.44,72874.0,-6.09,-7.01,-7.01,0,*56
1509138435.45,25854,10.44,72862.8,-6.11,-6.97,-6.97,0,*58
1509138436.65,25855,10.44,72866.8,-6.09,-6.73,-6.73,0,*50
1509138437.88,25856,10.44,72870.8,-6.11,-6.77,-6.77,0,*5A
1509138439.08,25857,10.5,72880.3,-6.09,-6.77,-6.77,0,*52
1509138440.28,25858,10.5,72882.3,-6.09,-6.77,-6.73,0,*59
1509138441.47,25859,10.5,72880.5,-6.09,-6.85,-6.77,0,*51
1509138442.67,25860,10.5,72898.8,-6.09,-6.85,-6.85,0,*56
1509138443.86,25861,10.5,72906.8,-6.09,-6.73,-6.77,0,*53
1509138445.06,25862,10.5,72914.5,-6.09,-6.73,-6.77,0,*50
1509138446.26,25863,10.5,72908.5,-6.05,-6.77,-6.73,0,*5D
1509138447.49,25864,10.5,72908.8,-6.07,-6.77,-6.77,0,*5C
1509138448.71,25865,10.5,72912.8,-6.07,-6.73,-6.73,0,*5D
1509138449.95,25866,10.44,72904.8,-6.07,-6.73,-6.63,0,*5F
1509138451.18,25867,10.44,72906.3,-6.07,-6.77,-6.77,0,*5F
1509138452.4,25868,10.5,72910.5,-6.05,-6.69,-6.63,0,*58
1509138453.62,25869,10.44,72912.8,-6.07,-6.73,-6.73,0,*51
1509138454.82,25870,10.5,72920.0,-6.05,-6.73,-6.59,0,*53
1509138456.06,25871,10.5,72912.5,-6.05,-7.01,-7.01,0,*5A
1509138457.34,25872,10.44,72908.5,-6.07,-6.93,-6.93,0,*5B
1509138458.56,25873,10.5,72912.8,-6.07,-6.73,-6.77,0,*5E
1509138459.81,25874,10.5,72912.3,-6.07,-6.73,-6.63,0,*5C
1509138461.03,25875,10.5,72900.3,-6.07,-6.85,-6.85,0,*5C
1509138462.26,25876,10.5,72904.0,-6.07,-6.85,-6.73,0,*56
1509138463.48,25877,10.44,72904.5,-6.07,-6.73,-6.73,0,*5E
1509138464.73,25878,10.5,72900.0,-6.07,-6.73,-6.63,0,*50
1509138465.97,25879,10.5,72904.3,-6.07,-6.73,-6.63,0,*51
1509138467.22,25880,10.5,72914.0,-6.07,-6.73,-6.63,0,*57
1509138468.42,25881,10.5,72914.5,-6.05,-6.59,-6.59,0,*55
1509138469.62,25882,10.5,72904.8,-6.05,-6.59,-6.59,0,*56
1509138470.81,25883,10.44,72896.3,-6.05,-6.69,-6.69,0,*57
1509138472.03,25884,10.5,72908.8,-6.07,-6.73,-6.73,0,*52
1509138473.28,25885,10.5,72912.8,-6.07,-6.77,-6.63,0,*56
1509138474.48,25886,10.5,72922.8,-6.05,-6.69,-6.81,0,*54
1509138475.67,25887,10.5,72926.3,-6.05,-6.69,-6.73,0,*58
1509138476.9,25888,10.44,72924.5,-6.07,-6.73,-6.73,0,*5E
1509138478.12,25889,10.5,72924.5,-6.07,-6.73,-6.59,0,*57
1509138479.34,25890,10.5,72922.8,-6.07,-6.73,-6.73,0,*57
1509138480.56,25891,10.5,72930.3,-6.07,-6.73,-6.73,0,*56
1509138481.79,25892,10.5,72920.8,-6.07,-6.73,-6.59,0,*5D
1509138483.04,25893,10.5,72914.0,-6.07,-6.73,-6.63,0,*55
1509138484.31,25894,10.5,72908.8,-6.07,-6.63,-6.63,0,*53
1509138485.49,25895,10.5,72912.0,-6.05,-6.69,-6.69,0,*50
1509138486.69,25896,10.5,72912.5,-6.05,-6.59,-6.59,0,*53
1509138487.89,25897,10.5,72924.0,-6.05,-6.59,-6.69,0,*51
1509138489.09,25898,10.5,72918.8,-6.05,-6.59,-6.59,0,*5D
1509138490.29,25899,10.5,72916.0,-6.05,-6.59,-6.59,0,*5C
1509138491.48,25900,10.5,72920.8,-6.05,-6.69,-6.59,0,*5E
1509138492.71,25901,10.44,72920.0,-6.07,-6.77,-6.77,0,*5E
1509138493.91,25902,10.5,72922.8,-6.05,-6.59,-6.55,0,*53
1509138495.11,25903,10.5,72924.5,-6.05,-6.55,-6.59,0,*52
1509138496.3,25904,10.5,72930.0,-6.05,-6.69,-6.55,0,*56
1509138497.5,25905,10.5,72930.8,-6.05,-6.59,-6.55,0,*54
1509138498.7,25906,10.5,72932.0,-6.05,-6.55,-6.55,0,*5B
1509138499.9,25907,10.5,72924.8,-6.05,-6.59,-6.55,0,*56
1509138501.1,25908,10.5,72924.5,-6.01,-6.51,-6.51,0,*51
1509138502.3,25909,10.5,72920.0,-6.01,-6.51,-6.51,0,*50
1509138503.5,25910,10.5,72918.3,-6.01,-6.55,-6.51,0,*5C
1509138504.7,25911,10.5,72924.3,-6.01,-6.51,-6.51,0,*59
1509138505.9,25912,10.5,72928.5,-6.01,-6.51,-6.51,0,*5A
1509138507.13,25913,10.5,72926.0,-5.99,-6.51,-6.55,0,*5D
1509138508.32,25914,10.5,72926.8,-6.01,-6.55,-6.55,0,*5C